User: anonymous   Login
Location: Owatonna
(44.0840°N, 93.2260°W)
Time: 09:17:54
(UTC-06:00)
Language:

Cosmos 839 Rocket - Orbit

View from above orbital plane
View from above orbital plane
View from above satellite
View from above satellite

Ground track
Ground track

The orbit data is extracted from the following two-line orbital elements,

1  9013U 76067B   17022.90376854 -.00000043 +00000-0 +38781-4 0  9992
2  9013 065.8669 288.4326 0708061 130.5258 289.8902 12.35325973828460
Epoch (UTC): 22 January 2017 21:41:25
Eccentricity: 0.0708061
inclination: 65.8669°
perigee height: 967 km
apogee height: 2086 km
right ascension of ascending node: 288.4326°
argument of perigee: 130.5258°
revolutions per day: 12.35325973
mean anomaly at epoch: 289.8902°
orbit number at epoch: 82846

The dashed part of the orbit path shows where the satellite is in the earth's shadow,  

DLR